THY4902 LTFM-LTCW

Flight info

Callsign THY4902
Flight time N/A
Altitude 350
Route VICEN UT57 VEVUD UT341 BAG UG8 EZS UT36 ULTED UT301 INLAP
Aircraft A321/M-SDE3/K

Departure

Time 2026-05-07 07:27
Airport İstanbul Airport (LTFM)

Arrival

Time N/A
Airport Hakkari Yüksekova Airport (LTCW)
Time Latitude Longitude Altitude Speed Heading
2026-05-07 07:02 41.26638 28.75041 334 ft 0 kts 278°
2026-05-07 07:13 41.26636 28.75062 334 ft 3 kts 278°
2026-05-07 07:13 41.26630 28.75095 334 ft 3 kts 297°
2026-05-07 07:13 41.26612 28.75112 334 ft 3 kts 350°
2026-05-07 07:13 41.26601 28.75112 334 ft 0 kts 10°
2026-05-07 07:17 41.26602 28.75112 334 ft 0 kts 10°
2026-05-07 07:17 41.26611 28.75117 334 ft 2 kts 23°
2026-05-07 07:17 41.26642 28.75132 334 ft 7 kts 18°
2026-05-07 07:17 41.26701 28.75146 334 ft 9 kts
2026-05-07 07:18 41.26772 28.75142 334 ft 10 kts 353°
2026-05-07 07:18 41.26837 28.75154 333 ft 9 kts 19°
2026-05-07 07:18 41.26877 28.75222 334 ft 10 kts 81°
2026-05-07 07:18 41.26879 28.75299 333 ft 5 kts 85°
2026-05-07 07:19 41.26890 28.75352 333 ft 6 kts 59°
2026-05-07 07:19 41.26936 28.75372 334 ft 8 kts 352°
2026-05-07 07:19 41.26997 28.75369 334 ft 9 kts 359°
2026-05-07 07:19 41.27068 28.75370 334 ft 11 kts
2026-05-07 07:20 41.27150 28.75369 334 ft 12 kts 358°
2026-05-07 07:20 41.27240 28.75369 334 ft 13 kts 360°
2026-05-07 07:20 41.27338 28.75363 334 ft 14 kts
2026-05-07 07:20 41.27439 28.75367 334 ft 15 kts
2026-05-07 07:21 41.27546 28.75360 334 ft 15 kts 358°
2026-05-07 07:21 41.27642 28.75363 334 ft 8 kts 358°
2026-05-07 07:21 41.27707 28.75362 333 ft 10 kts 359°
2026-05-07 07:21 41.27781 28.75356 334 ft 11 kts
2026-05-07 07:22 41.27864 28.75359 334 ft 12 kts
2026-05-07 07:22 41.27956 28.75353 334 ft 13 kts 359°
2026-05-07 07:22 41.28052 28.75350 334 ft 14 kts 358°
2026-05-07 07:22 41.28155 28.75351 334 ft 15 kts
2026-05-07 07:23 41.28264 28.75350 334 ft 15 kts
2026-05-07 07:23 41.28376 28.75348 333 ft 16 kts 357°
2026-05-07 07:23 41.28491 28.75343 334 ft 16 kts 357°
2026-05-07 07:23 41.28609 28.75338 334 ft 17 kts 359°
2026-05-07 07:24 41.28730 28.75336 334 ft 17 kts 359°
2026-05-07 07:24 41.28833 28.75333 334 ft 12 kts 360°
2026-05-07 07:24 41.28909 28.75334 334 ft 2 kts
2026-05-07 07:24 41.28934 28.75345 334 ft 4 kts 24°
2026-05-07 07:25 41.28971 28.75441 334 ft 7 kts 89°
2026-05-07 07:25 41.28972 28.75520 334 ft 9 kts 90°
2026-05-07 07:25 41.28965 28.75598 334 ft 4 kts 115°
2026-05-07 07:26 41.28930 28.75613 334 ft 6 kts 165°
2026-05-07 07:26 41.28880 28.75619 334 ft 8 kts 177°
2026-05-07 07:26 41.28642 28.75621 334 ft 72 kts 178°
2026-05-07 07:26 41.27893 28.75639 334 ft 140 kts 179°
2026-05-07 07:27 41.26746 28.75662 377 ft 190 kts 177°
2026-05-07 07:27 41.25430 28.75750 1067 ft 191 kts 177°
2026-05-07 07:27 41.24126 28.75895 1880 ft 192 kts 164°
2026-05-07 07:27 41.23063 28.76887 2558 ft 194 kts 127°
2026-05-07 07:28 41.22227 28.78343 3002 ft 209 kts 131°
2026-05-07 07:28 41.21218 28.79679 3382 ft 225 kts 132°
2026-05-07 07:28 41.20361 28.81505 3727 ft 246 kts 114°
2026-05-07 07:28 41.19694 28.83678 4227 ft 262 kts 111°
2026-05-07 07:29 41.19013 28.85937 4948 ft 269 kts 112°
2026-05-07 07:29 41.18281 28.88235 5775 ft 271 kts 113°
2026-05-07 07:29 41.17523 28.90514 6559 ft 274 kts 114°
2026-05-07 07:29 41.16749 28.92774 7303 ft 277 kts 114°
2026-05-07 07:30 41.15944 28.95084 8041 ft 280 kts 115°
2026-05-07 07:30 41.15121 28.97418 8764 ft 283 kts 115°
2026-05-07 07:30 41.14281 28.99784 9473 ft 286 kts 115°
2026-05-07 07:30 41.13436 29.02155 10154 ft 289 kts 115°
2026-05-07 07:31 41.12563 29.04598 10572 ft 302 kts 115°
2026-05-07 07:31 41.11649 29.07149 10872 ft 318 kts 115°
2026-05-07 07:31 41.10677 29.09859 11168 ft 335 kts 115°
2026-05-07 07:31 41.09650 29.12715 11456 ft 350 kts 115°
2026-05-07 07:32 41.09230 29.13883 11566 ft 356 kts 115°
2026-05-07 07:32 41.08154 29.16873 11980 ft 367 kts 115°
2026-05-07 07:32 41.07052 29.19929 12621 ft 370 kts 115°
2026-05-07 07:32 41.05943 29.23002 13271 ft 372 kts 115°
2026-05-07 07:33 41.04816 29.26125 13886 ft 376 kts 115°
2026-05-07 07:33 41.03685 29.29251 14479 ft 379 kts 115°
2026-05-07 07:33 41.02548 29.32395 15059 ft 382 kts 115°
2026-05-07 07:33 41.01408 29.35543 15621 ft 385 kts 115°
2026-05-07 07:34 41.00240 29.38763 16180 ft 389 kts 115°
2026-05-07 07:34 40.99065 29.42001 16725 ft 392 kts 115°
2026-05-07 07:34 40.97893 29.45225 17254 ft 395 kts 115°
2026-05-07 07:34 40.96699 29.48506 17776 ft 398 kts 115°
2026-05-07 07:35 40.95489 29.51828 18289 ft 401 kts 115°
2026-05-07 07:35 40.94288 29.55123 18781 ft 404 kts 115°
2026-05-07 07:35 40.93066 29.58469 19267 ft 407 kts 115°
2026-05-07 07:35 40.91830 29.61850 19743 ft 410 kts 115°
2026-05-07 07:36 40.90584 29.65254 20208 ft 413 kts 116°
2026-05-07 07:36 40.89349 29.68627 20655 ft 415 kts 116°
2026-05-07 07:36 40.88070 29.72092 21101 ft 418 kts 116°
2026-05-07 07:36 40.86793 29.75543 21532 ft 421 kts 116°
2026-05-07 07:37 40.85516 29.78998 21950 ft 423 kts 116°
2026-05-07 07:37 40.84232 29.82478 22359 ft 426 kts 116°
2026-05-07 07:37 40.82923 29.86024 22765 ft 429 kts 116°
2026-05-07 07:37 40.81622 29.89548 23156 ft 431 kts 116°
2026-05-07 07:38 40.80307 29.93104 23536 ft 434 kts 116°
2026-05-07 07:38 40.78988 29.96670 23903 ft 436 kts 116°
2026-05-07 07:38 40.77663 30.00249 24258 ft 438 kts 116°
2026-05-07 07:38 40.76313 30.03889 24604 ft 441 kts 116°
2026-05-07 07:39 40.74973 30.07499 24941 ft 443 kts 116°
2026-05-07 07:39 40.73613 30.11160 25267 ft 445 kts 116°
2026-05-07 07:39 40.72248 30.14829 25581 ft 447 kts 116°
2026-05-07 07:39 40.70878 30.18506 25886 ft 449 kts 116°
2026-05-07 07:40 40.69502 30.22190 26185 ft 451 kts 116°
2026-05-07 07:40 40.68094 30.25897 26467 ft 453 kts 117°
2026-05-07 07:40 40.66546 30.29491 26734 ft 455 kts 121°
2026-05-07 07:40 40.64807 30.32979 27068 ft 455 kts 124°
2026-05-07 07:41 40.62930 30.36289 27462 ft 454 kts 127°
2026-05-07 07:41 40.60996 30.39583 27854 ft 452 kts 127°
2026-05-07 07:41 40.59066 30.42857 28211 ft 452 kts 127°
2026-05-07 07:41 40.57147 30.46113 28550 ft 451 kts 127°
2026-05-07 07:42 40.55339 30.49466 28879 ft 451 kts 121°
2026-05-07 07:42 40.53847 30.53055 29212 ft 450 kts 114°
2026-05-07 07:42 40.52696 30.56846 29533 ft 449 kts 107°
2026-05-07 07:42 40.51875 30.60782 29846 ft 448 kts 103°
2026-05-07 07:43 40.51180 30.64745 30148 ft 448 kts 102°
2026-05-07 07:43 40.50506 30.68705 30435 ft 447 kts 102°
2026-05-07 07:43 40.49802 30.72696 30722 ft 447 kts 104°
2026-05-07 07:43 40.48972 30.76572 31005 ft 446 kts 107°
2026-05-07 07:44 40.48059 30.80473 31292 ft 446 kts 107°
2026-05-07 07:44 40.47141 30.84345 31564 ft 445 kts 107°
2026-05-07 07:44 40.46226 30.88191 31826 ft 445 kts 107°
2026-05-07 07:44 40.45301 30.92074 32081 ft 444 kts 107°
2026-05-07 07:45 40.44388 30.95908 32323 ft 444 kts 107°
2026-05-07 07:45 40.43471 30.99754 32563 ft 443 kts 107°
2026-05-07 07:45 40.42548 31.03616 32794 ft 443 kts 107°
2026-05-07 07:45 40.41625 31.07477 33018 ft 442 kts 107°
2026-05-07 07:46 40.40716 31.11270 33226 ft 442 kts 107°
2026-05-07 07:46 40.39787 31.15140 33402 ft 443 kts 107°
2026-05-07 07:46 40.38870 31.18958 33553 ft 443 kts 107°
2026-05-07 07:46 40.38028 31.22849 33706 ft 444 kts 104°
2026-05-07 07:47 40.37338 31.26800 33862 ft 445 kts 102°
2026-05-07 07:47 40.36695 31.30767 34010 ft 445 kts 101°
2026-05-07 07:47 40.36060 31.34712 34150 ft 446 kts 101°
2026-05-07 07:47 40.35419 31.38675 34288 ft 446 kts 101°
2026-05-07 07:48 40.34775 31.42646 34423 ft 447 kts 101°
2026-05-07 07:48 40.34135 31.46576 34554 ft 447 kts 101°
2026-05-07 07:48 40.33483 31.50560 34684 ft 448 kts 101°
2026-05-07 07:48 40.32826 31.54565 34807 ft 448 kts 101°
2026-05-07 07:49 40.32171 31.58550 34925 ft 449 kts 101°
2026-05-07 07:49 40.30853 31.66531 34968 ft 450 kts 102°
2026-05-07 07:50 40.29541 31.74462 34974 ft 450 kts 102°
2026-05-07 07:50 40.28205 31.82476 34975 ft 450 kts 102°
2026-05-07 07:51 40.26866 31.90437 34974 ft 450 kts 103°
2026-05-07 07:51 40.25236 31.98344 34976 ft 450 kts 105°
2026-05-07 07:52 40.23534 32.06190 34976 ft 450 kts 105°
2026-05-07 07:52 40.21823 32.14046 34976 ft 450 kts 105°
2026-05-07 07:53 40.20110 32.21890 34976 ft 450 kts 105°
2026-05-07 07:53 40.18393 32.29731 34976 ft 450 kts 105°
2026-05-07 07:54 40.16673 32.37553 34976 ft 450 kts 105°
2026-05-07 07:54 40.14948 32.45371 34976 ft 450 kts 105°
2026-05-07 07:55 40.13209 32.53225 34976 ft 450 kts 105°
2026-05-07 07:55 40.11474 32.61032 34976 ft 450 kts 105°
2026-05-07 07:56 40.09734 32.68831 34976 ft 450 kts 106°
2026-05-07 07:56 40.07986 32.76654 34976 ft 450 kts 106°
2026-05-07 07:57 40.06031 32.84391 34977 ft 450 kts 110°
2026-05-07 07:57 40.05298 32.86912 34976 ft 450 kts 110°